TimeAKST,TemperatureF,Dew PointF,Humidity,Sea Level PressureIn,VisibilityMPH,Wind Direction,Wind SpeedMPH,Gust SpeedMPH,PrecipitationIn,Events,Conditions,WindDirDegrees,DateUTC
12:16 AM,32.0,17.6,55,29.39,10.0,East,15.0,31.1,N/A,,Overcast,90,2012-11-30 09:16:00
12:36 AM,30.2,17.6,60,29.38,10.0,East,18.4,23.0,N/A,,Overcast,100,2012-11-30 09:36:00
12:56 AM,32.0,19.4,60,29.38,10.0,East,18.4,29.9,N/A,,Overcast,80,2012-11-30 09:56:00
1:16 AM,32.0,17.6,55,29.38,10.0,East,19.6,29.9,N/A,,Overcast,90,2012-11-30 10:16:00
1:36 AM,32.0,17.6,55,29.37,10.0,East,18.4,32.2,N/A,,Overcast,100,2012-11-30 10:36:00
1:56 AM,32.0,17.6,55,29.37,10.0,East,18.4,31.1,N/A,,Overcast,90,2012-11-30 10:56:00
2:16 AM,30.2,19.4,64,29.37,10.0,ESE,18.4,26.5,N/A,,Overcast,110,2012-11-30 11:16:00
2:36 AM,30.2,19.4,64,29.37,10.0,East,20.7,29.9,N/A,,Overcast,100,2012-11-30 11:36:00
2:56 AM,30.2,17.6,60,29.37,8.0,ESE,17.3,31.1,N/A,,Overcast,110,2012-11-30 11:56:00
3:16 AM,30.2,19.4,64,29.36,7.0,East,21.9,27.6,N/A,,Overcast,100,2012-11-30 12:16:00
3:36 AM,30.2,19.4,64,29.36,10.0,East,16.1,27.6,N/A,,Overcast,90,2012-11-30 12:36:00
3:56 AM,30.2,17.6,60,29.35,10.0,ESE,17.3,27.6,N/A,,Overcast,110,2012-11-30 12:56:00
4:16 AM,30.2,17.6,60,29.35,10.0,East,17.3,27.6,N/A,,Overcast,100,2012-11-30 13:16:00
4:36 AM,30.2,17.6,60,29.35,10.0,East,19.6,29.9,N/A,,Overcast,100,2012-11-30 13:36:00
4:56 AM,30.2,17.6,60,29.35,10.0,East,17.3,25.3,N/A,,Overcast,90,2012-11-30 13:56:00
5:16 AM,30.2,17.6,60,29.33,10.0,East,24.2,29.9,N/A,,Overcast,100,2012-11-30 14:16:00
5:36 AM,30.2,15.8,55,29.34,10.0,East,17.3,28.8,N/A,,Overcast,90,2012-11-30 14:36:00
5:56 AM,30.2,15.8,55,29.33,10.0,East,17.3,24.2,N/A,,Mostly Cloudy,100,2012-11-30 14:56:00
6:16 AM,30.2,17.6,60,29.33,10.0,East,17.3,29.9,N/A,,Mostly Cloudy,90,2012-11-30 15:16:00
6:36 AM,30.2,15.8,55,29.32,10.0,East,16.1,25.3,N/A,,Mostly Cloudy,90,2012-11-30 15:36:00
6:56 AM,30.2,15.8,55,29.32,10.0,East,17.3,24.2,N/A,,Mostly Cloudy,100,2012-11-30 15:56:00
7:16 AM,30.2,15.8,55,29.31,10.0,East,13.8,21.9,N/A,,Mostly Cloudy,90,2012-11-30 16:16:00
7:36 AM,30.2,17.6,60,29.31,10.0,East,13.8,20.7,N/A,,Mostly Cloudy,100,2012-11-30 16:36:00
7:56 AM,30.2,15.8,55,29.31,10.0,East,11.5,19.6,N/A,,Mostly Cloudy,90,2012-11-30 16:56:00
8:16 AM,30.2,17.6,60,29.31,10.0,East,15.0,20.7,N/A,,Mostly Cloudy,90,2012-11-30 17:16:00
8:36 AM,30.2,17.6,60,29.30,10.0,East,15.0,20.7,N/A,,Mostly Cloudy,80,2012-11-30 17:36:00
8:56 AM,30.2,15.8,55,29.30,10.0,East,18.4,25.3,N/A,,Mostly Cloudy,90,2012-11-30 17:56:00
9:16 AM,30.2,15.8,55,29.31,10.0,East,15.0,21.9,N/A,,Mostly Cloudy,90,2012-11-30 18:16:00
9:36 AM,30.2,15.8,55,29.30,10.0,East,15.0,-,N/A,,Mostly Cloudy,100,2012-11-30 18:36:00
9:56 AM,30.2,15.8,55,29.30,10.0,ESE,11.5,23.0,N/A,,Mostly Cloudy,110,2012-11-30 18:56:00
10:16 AM,30.2,15.8,55,29.30,10.0,East,10.4,-,N/A,,Mostly Cloudy,80,2012-11-30 19:16:00
10:36 AM,30.2,15.8,55,29.29,10.0,East,15.0,25.3,N/A,,Mostly Cloudy,90,2012-11-30 19:36:00
10:56 AM,32.0,15.8,51,29.28,10.0,ENE,19.6,24.2,N/A,,Mostly Cloudy,70,2012-11-30 19:56:00
11:16 AM,30.2,15.8,55,29.28,10.0,East,13.8,21.9,N/A,,Mostly Cloudy,100,2012-11-30 20:16:00
11:36 AM,30.2,15.8,55,29.29,10.0,East,5.8,-,N/A,,Mostly Cloudy,80,2012-11-30 20:36:00
11:56 AM,32.0,15.8,51,29.28,10.0,ENE,9.2,20.7,N/A,,Mostly Cloudy,60,2012-11-30 20:56:00
12:16 PM,30.2,15.8,55,29.28,10.0,East,11.5,16.1,N/A,,Mostly Cloudy,90,2012-11-30 21:16:00
12:36 PM,32.0,15.8,51,29.27,10.0,East,16.1,21.9,N/A,,Mostly Cloudy,80,2012-11-30 21:36:00
12:56 PM,32.0,15.8,51,29.27,10.0,East,11.5,16.1,N/A,,Mostly Cloudy,100,2012-11-30 21:56:00
1:16 PM,32.0,17.6,55,29.27,10.0,East,9.2,-,N/A,,Mostly Cloudy,80,2012-11-30 22:16:00
1:36 PM,32.0,15.8,51,29.26,10.0,East,15.0,-,N/A,,Mostly Cloudy,100,2012-11-30 22:36:00
1:56 PM,32.0,15.8,51,29.27,10.0,East,15.0,19.6,N/A,,Mostly Cloudy,80,2012-11-30 22:56:00
2:16 PM,32.0,15.8,51,29.27,10.0,East,13.8,21.9,N/A,,Mostly Cloudy,100,2012-11-30 23:16:00
2:36 PM,32.0,15.8,51,29.26,10.0,East,18.4,21.9,N/A,,Mostly Cloudy,90,2012-11-30 23:36:00
2:56 PM,30.2,15.8,55,29.27,10.0,East,16.1,21.9,N/A,,Scattered Clouds,100,2012-11-30 23:56:00
3:16 PM,30.2,15.8,55,29.27,10.0,East,13.8,-,N/A,,Scattered Clouds,80,2012-12-01 00:16:00
3:36 PM,30.2,15.8,55,29.27,10.0,East,12.7,21.9,N/A,,Scattered Clouds,80,2012-12-01 00:36:00
3:56 PM,30.2,14.0,51,29.27,10.0,East,13.8,17.3,N/A,,Mostly Cloudy,90,2012-12-01 00:56:00
4:16 PM,30.2,14.0,51,29.27,10.0,East,13.8,20.7,N/A,,Mostly Cloudy,90,2012-12-01 01:16:00
4:36 PM,30.2,15.8,55,29.27,10.0,East,15.0,19.6,N/A,,Mostly Cloudy,80,2012-12-01 01:36:00
4:56 PM,30.2,14.0,51,29.26,10.0,East,18.4,25.3,N/A,,Clear,80,2012-12-01 01:56:00
5:16 PM,30.2,14.0,51,29.26,10.0,East,15.0,19.6,N/A,,Clear,90,2012-12-01 02:16:00
5:36 PM,30.2,14.0,51,29.27,10.0,East,15.0,21.9,N/A,,Clear,90,2012-12-01 02:36:00
5:56 PM,30.2,14.0,51,29.27,10.0,East,17.3,23.0,N/A,,Mostly Cloudy,100,2012-12-01 02:56:00
6:16 PM,30.2,12.2,47,29.27,10.0,East,16.1,23.0,N/A,,Mostly Cloudy,90,2012-12-01 03:16:00
6:36 PM,30.2,14.0,51,29.27,10.0,East,13.8,21.9,N/A,,Mostly Cloudy,80,2012-12-01 03:36:00
6:56 PM,30.2,14.0,51,29.27,10.0,East,18.4,28.8,N/A,,Clear,90,2012-12-01 03:56:00
7:16 PM,30.2,14.0,51,29.27,10.0,East,17.3,26.5,N/A,,Clear,90,2012-12-01 04:16:00
7:36 PM,30.2,14.0,51,29.28,10.0,East,17.3,24.2,N/A,,Clear,90,2012-12-01 04:36:00
7:56 PM,30.2,12.2,47,29.28,10.0,ESE,18.4,25.3,N/A,,Scattered Clouds,110,2012-12-01 04:56:00
8:16 PM,30.2,14.0,51,29.28,10.0,East,19.6,27.6,N/A,,Scattered Clouds,100,2012-12-01 05:16:00
8:36 PM,30.2,14.0,51,29.28,10.0,East,17.3,23.0,N/A,,Scattered Clouds,90,2012-12-01 05:36:00
8:56 PM,30.2,12.2,47,29.28,10.0,East,17.3,24.2,N/A,,Overcast,90,2012-12-01 05:56:00
9:16 PM,30.2,15.8,55,29.28,10.0,East,15.0,24.2,N/A,,Overcast,80,2012-12-01 06:16:00
9:36 PM,30.2,14.0,51,29.28,10.0,East,17.3,25.3,N/A,,Overcast,100,2012-12-01 06:36:00
9:56 PM,30.2,14.0,51,29.28,10.0,East,18.4,24.2,N/A,,Overcast,80,2012-12-01 06:56:00
10:16 PM,30.2,14.0,51,29.28,10.0,East,17.3,26.5,N/A,,Overcast,90,2012-12-01 07:16:00
10:36 PM,30.2,15.8,55,29.29,10.0,East,16.1,20.7,N/A,,Overcast,90,2012-12-01 07:36:00
10:56 PM,30.2,15.8,55,29.29,10.0,East,15.0,23.0,N/A,,Overcast,80,2012-12-01 07:56:00
11:16 PM,30.2,14.0,51,29.29,10.0,East,16.1,23.0,N/A,,Overcast,100,2012-12-01 08:16:00
11:36 PM,30.2,14.0,51,29.29,10.0,East,17.3,21.9,N/A,,Overcast,90,2012-12-01 08:36:00
11:56 PM,30.2,14.0,51,29.29,10.0,East,17.3,25.3,N/A,,Overcast,90,2012-12-01 08:56:00